Orbital Elements at Epoch 2459000.5 (2020-May-31.0) TDB
Reference: JPL 17 (heliocentric ecliptic J2000)
Element | Value | Uncertainty (1-sigma) | Units |
e | .3161973374289038 | 5.2531e-08 | |
a | 2.575068612256248 | 3.1083e-08 | au |
q | 1.76083877336408 | 1.3595e-07 | au |
i | 10.04043671537283 | 1.3287e-05 | deg |
node | 242.7773830183633 | 3.637e-05 | deg |
peri | 66.16663436836643 | 5.212e-05 | deg |
M | 114.4760152445039 | 4.2197e-05 | deg |
tp | 2458520.552606154511 (2019-Feb-06.05260615) | 0.00016895 | TDB |
period | 1509.321069704787 4.13 | 2.7328e-05 7.482e-08 | d yr |
n | .2385178390641652 | 4.3186e-09 | deg/d |
Q | 3.389298451148416 | 4.0911e-08 | au |
|
| | Orbit Determination Parameters
Additional Information
|